AAR223 KJFK-RKSI

Flight info

Callsign AAR223
Flight time N/A
Altitude 38000
Route GAYEL Q812 SYR DCT NOVON DCT 47N080W 53N090W 56N100W 58N110W 60N120W 61N130W DCT JAGIT DCT NODLE R220 NODAN R217 ASTER Y514 SDE Y512 GTC Y142 SAMON Y14 SUGNO Y16 SAPRA Y685 GUKDO GUKDO2E
Aircraft A388/J-SADE2E3FGHIJ3J4J5M1RWXY/LB1D1

Departure

Time N/A
Airport John F. Kennedy International Airport (KJFK)

Arrival

Time 2026-05-01 07:40
Airport Incheon International Airport (RKSI)
Time Latitude Longitude Altitude Speed Heading
2026-05-01 07:23 37.34387 126.81914 14877 ft 247 kts 318°
2026-05-01 07:23 37.36708 126.78870 14336 ft 234 kts 316°
2026-05-01 07:24 37.37593 126.77149 14062 ft 240 kts 295°
2026-05-01 07:24 37.37756 126.75016 13791 ft 256 kts 269°
2026-05-01 07:24 37.37069 126.72882 13572 ft 273 kts 244°
2026-05-01 07:24 37.35780 126.71119 13323 ft 287 kts 221°
2026-05-01 07:25 37.33886 126.70109 13086 ft 298 kts 193°
2026-05-01 07:25 37.31838 126.70175 12864 ft 301 kts 165°
2026-05-01 07:25 37.29965 126.71298 12639 ft 296 kts 137°
2026-05-01 07:25 37.28515 126.73102 12375 ft 292 kts 127°
2026-05-01 07:26 37.27133 126.74968 12111 ft 291 kts 131°
2026-05-01 07:26 37.25655 126.76689 11813 ft 290 kts 136°
2026-05-01 07:26 37.24099 126.78257 11541 ft 290 kts 140°
2026-05-01 07:26 37.22472 126.79756 11269 ft 289 kts 141°
2026-05-01 07:27 37.20837 126.81202 10995 ft 285 kts 142°
2026-05-01 07:27 37.19224 126.82611 10726 ft 281 kts 142°
2026-05-01 07:27 37.17658 126.83977 10461 ft 278 kts 142°
2026-05-01 07:27 37.16041 126.85394 10194 ft 276 kts 142°
2026-05-01 07:28 37.14382 126.86584 9907 ft 276 kts 162°
2026-05-01 07:28 37.12518 126.86822 9658 ft 272 kts 191°
2026-05-01 07:28 37.10784 126.86003 9377 ft 262 kts 221°
2026-05-01 07:28 37.09611 126.84372 9094 ft 248 kts 248°
2026-05-01 07:29 37.08981 126.82394 8802 ft 238 kts 267°
2026-05-01 07:29 37.09036 126.80386 8512 ft 226 kts 289°
2026-05-01 07:29 37.09637 126.78632 8252 ft 221 kts 308°
2026-05-01 07:29 37.10724 126.77317 7978 ft 216 kts 327°
2026-05-01 07:30 37.11976 126.76272 7681 ft 215 kts 327°
2026-05-01 07:30 37.13200 126.75196 7387 ft 213 kts 326°
2026-05-01 07:30 37.14402 126.74123 7081 ft 211 kts 325°
2026-05-01 07:30 37.15596 126.73056 6795 ft 210 kts 325°
2026-05-01 07:31 37.16773 126.72011 6519 ft 209 kts 325°
2026-05-01 07:31 37.20287 126.68904 5703 ft 193 kts 325°
2026-05-01 07:32 37.22372 126.67108 5148 ft 179 kts 326°
2026-05-01 07:32 37.23383 126.66228 4871 ft 176 kts 325°
2026-05-01 07:33 37.25297 126.64532 4338 ft 165 kts 326°
2026-05-01 07:33 37.26237 126.63700 4074 ft 166 kts 325°
2026-05-01 07:33 37.28059 126.62087 3509 ft 154 kts 324°
2026-05-01 07:34 37.28918 126.61323 3262 ft 151 kts 324°
2026-05-01 07:34 37.30502 126.59919 2687 ft 129 kts 324°
2026-05-01 07:34 37.31229 126.59273 2600 ft 127 kts 323°
2026-05-01 07:35 37.31953 126.58631 2603 ft 127 kts 323°
2026-05-01 07:35 37.32679 126.57986 2602 ft 128 kts 323°
2026-05-01 07:35 37.33397 126.57349 2602 ft 126 kts 322°
2026-05-01 07:35 37.34120 126.56706 2599 ft 126 kts 323°
2026-05-01 07:36 37.34834 126.56073 2560 ft 128 kts 322°
2026-05-01 07:36 37.35559 126.55427 2412 ft 128 kts 321°
2026-05-01 07:36 37.36288 126.54780 2249 ft 128 kts 321°
2026-05-01 07:36 37.37026 126.54125 2077 ft 128 kts 322°
2026-05-01 07:37 37.38470 126.52841 1732 ft 125 kts 320°
2026-05-01 07:37 37.39175 126.52214 1579 ft 125 kts 320°
2026-05-01 07:37 37.39894 126.51573 1405 ft 126 kts 321°
2026-05-01 07:38 37.40615 126.50948 1224 ft 126 kts 322°
2026-05-01 07:38 37.41337 126.50329 1043 ft 125 kts 319°
2026-05-01 07:38 37.42774 126.49067 706 ft 131 kts 319°
2026-05-01 07:39 37.43511 126.48403 537 ft 129 kts 318°
2026-05-01 07:39 37.44236 126.47758 398 ft 127 kts 315°
2026-05-01 07:39 37.45679 126.46445 67 ft 127 kts 315°
2026-05-01 07:40 37.46335 126.45839 39 ft 95 kts 323°
2026-05-01 07:40 37.46697 126.45525 37 ft 41 kts 324°
2026-05-01 07:40 37.46900 126.45342 38 ft 32 kts 324°
2026-05-01 07:40 37.47060 126.45199 40 ft 25 kts 325°
2026-05-01 07:41 37.47190 126.45083 39 ft 21 kts 325°
2026-05-01 07:41 37.47301 126.44984 39 ft 18 kts 323°
2026-05-01 07:41 37.47405 126.44857 37 ft 9 kts 302°
2026-05-01 07:42 37.47437 126.44779 37 ft 9 kts 293°
2026-05-01 07:42 37.47461 126.44708 37 ft 6 kts 291°
2026-05-01 07:42 37.47463 126.44643 37 ft 7 kts 233°
2026-05-01 07:42 37.47419 126.44624 37 ft 8 kts 170°
2026-05-01 07:43 37.47361 126.44666 37 ft 13 kts 144°
2026-05-01 07:43 37.47270 126.44750 37 ft 19 kts 143°
2026-05-01 07:43 37.47022 126.44972 38 ft 22 kts 145°
2026-05-01 07:44 37.46850 126.44946 39 ft 14 kts 235°
2026-05-01 07:44 37.46727 126.44725 37 ft 16 kts 249°
2026-05-01 07:45 37.46714 126.44620 37 ft 11 kts 251°
2026-05-01 07:45 37.46710 126.44533 37 ft 9 kts 303°
2026-05-01 07:45 37.46726 126.44509 37 ft 10 kts 321°
2026-05-01 07:46 37.46784 126.44456 37 ft 14 kts 324°
2026-05-01 07:46 37.46869 126.44380 37 ft 16 kts 325°
2026-05-01 07:46 37.47034 126.44186 37 ft 13 kts 249°
2026-05-01 07:47 37.46983 126.44106 37 ft 7 kts 221°
2026-05-01 07:47 37.46950 126.44073 37 ft 7 kts 217°
2026-05-01 07:47 37.46900 126.44021 37 ft 10 kts 220°
2026-05-01 07:47 37.46875 126.43994 37 ft 0 kts 220°